Blountville, TN

6:38 PM EST on February 25, 2017 (GMT -0500)
Tri-Cities Regional Tennessee / Virginia

Weather History for KTRI - June, 2013

Change the Weather History Date:

Sunday, June 16, 2013

  Actual Average Record
Temperature  
Mean Temperature 72 °F 72 °F  
Max Temperature 84 °F 83 °F 94 °F (1952)
Min Temperature 60 °F 60 °F 50 °F (2002)
Degree Days  
Heating Degree Days 0 0  
Month to date heating degree days 0 9  
Since 1 June heating degree days 0 9  
Since 1 July heating degree days 4314 4372  
Cooling Degree Days 7 7  
Month to date cooling degree days 114 90  
Year to date cooling degree days 186 163  
Since 1 June cooling degree days 114 90  
Growing Degree Days 22 (Base 50)    
Moisture  
Dew Point 62 °F    
Average Humidity 73    
Maximum Humidity 97    
Minimum Humidity 48    
Precipitation  
Precipitation T in 0.13 in 1.96 in (1989)
Month to date precipitation 2.63 2.01  
Year to date precipitation 27.32 19.40  
Snow  
Snow 0.00 in 0.00 in - ()
Month to date snowfall 0.0 0.0  
Since 1 June snowfall 0.0 0.0  
Since 1 July snowfall 9.2 13.3  
Snow Depth 0.00 in    
Sea Level Pressure  
Sea Level Pressure 30.04 in    
Wind  
Wind Speed 4 mph (SW)    
Max Wind Speed 15 mph    
Max Gust Speed 22 mph    
Visibility 10 miles    
Events Rain    
T = Trace of Precipitation, MM = Missing Value Source: NWS Daily Summary

Daily Weather History Graph

Daily Weather History Graph

Search for Another Location

Airport or City:

Trip Planner

Search our weather history database for the weather conditions in past years. The results will help you decide how hot, cold, wet, or windy it might be!

Date:

Astronomy

Jun. 16, 2013 Rise Set
Actual Time 6:11 AM EDT 8:49 PM EDT
Civil Twilight 5:40 AM EDT 9:20 PM EDT
Nautical Twilight 5:02 AM EDT 9:58 PM EDT
Astronomical Twilight 4:20 AM EDT 10:40 PM EDT
Moon 1:34 PM EDT (6/16) 1:04 AM EDT (6/16)
Length of Visible Light 15h 39m
Length of Day
14h 38m
Waxing Crescent, 49% of the Moon is Illuminated
Jun 16
Waxing Crescent
Jun 16
First Quarter
Jun 23
Full
Jun 30
Last Quarter
Jul 8
New

Hourly Weather History & Observations

Time (EDT) Temp. Heat Index Dew Point Humidity Pressure Visibility Wind Dir Wind Speed Gust Speed Precip Events Conditions
12:53 AM 63.0 °F - 59.0 °F 87% 30.05 in 10.0 mi Calm Calm - N/A   Scattered Clouds
1:53 AM 62.1 °F - 60.1 °F 93% 30.04 in 9.0 mi Calm Calm - N/A   Mostly Cloudy
2:53 AM 62.1 °F - 59.0 °F 90% 30.05 in 10.0 mi Calm Calm - N/A   Mostly Cloudy
3:53 AM 61.0 °F - 59.0 °F 93% 30.04 in 10.0 mi Calm Calm - N/A   Scattered Clouds
4:53 AM 61.0 °F - 59.0 °F 93% 30.05 in 10.0 mi Calm Calm - N/A   Mostly Cloudy
5:53 AM 62.1 °F - 60.1 °F 93% 30.06 in 10.0 mi Calm Calm - N/A   Mostly Cloudy
6:53 AM 62.1 °F - 60.1 °F 93% 30.08 in 10.0 mi Calm Calm - N/A   Mostly Cloudy
7:53 AM 64.9 °F - 61.0 °F 87% 30.09 in 10.0 mi Calm Calm - N/A   Mostly Cloudy
8:53 AM 68.0 °F - 62.1 °F 81% 30.10 in 10.0 mi Calm Calm - N/A   Mostly Cloudy
9:53 AM 73.0 °F - 62.1 °F 68% 30.09 in 10.0 mi Calm Calm - N/A   Mostly Cloudy
10:53 AM 73.9 °F - 64.0 °F 71% 30.09 in 10.0 mi South 3.5 mph - N/A   Mostly Cloudy
11:53 AM 79.0 °F - 61.0 °F 54% 30.07 in 10.0 mi WSW 13.8 mph - N/A   Mostly Cloudy
12:53 PM 80.1 °F 81.5 °F 63.0 °F 56% 30.06 in 10.0 mi SW 8.1 mph - N/A   Mostly Cloudy
1:53 PM 81.0 °F 82.2 °F 63.0 °F 54% 30.04 in 10.0 mi West 8.1 mph - N/A   Mostly Cloudy
2:53 PM 82.0 °F 83.4 °F 64.0 °F 54% 30.02 in 10.0 mi WSW 12.7 mph - N/A   Mostly Cloudy
3:53 PM 82.9 °F 84.4 °F 64.0 °F 53% 30.01 in 10.0 mi SSW 9.2 mph - N/A   Mostly Cloudy
4:53 PM 84.0 °F 84.5 °F 62.1 °F 47% 30.00 in 10.0 mi WSW 10.4 mph - N/A   Mostly Cloudy
5:53 PM 81.0 °F 81.9 °F 62.1 °F 52% 29.99 in 10.0 mi SW 10.4 mph - N/A   Overcast
6:53 PM 80.1 °F 81.2 °F 62.1 °F 54% 29.98 in 10.0 mi WSW 5.8 mph - N/A   Overcast
7:53 PM 78.1 °F - 64.0 °F 62% 29.99 in 10.0 mi West 6.9 mph - 0.00 in Rain Light Rain
8:53 PM 75.9 °F - 64.0 °F 67% 29.99 in 10.0 mi South 3.5 mph - 0.00 in   Overcast
9:53 PM 73.0 °F - 64.9 °F 76% 29.99 in 10.0 mi Calm Calm - N/A   Overcast
10:53 PM 73.0 °F - 64.9 °F 76% 30.00 in 10.0 mi Calm Calm - N/A   Overcast
11:53 PM 71.1 °F - 66.0 °F 84% 30.00 in 9.0 mi Calm Calm - N/A   Overcast